CFG2CA EDDH-EDDF

Flight info

Callsign CFG2CA
Flight time 0h 59m
Altitude 30000
Route AMLUH2D AMLUH M852 DENIX DCT RIMET/N0405F310 T157 KOKEB/N0357F230 T157 KERAX KERAX5D
Aircraft A320/M-SDE1FGHIJ1LORVWYZ/S

Departure

Time 2026-05-01 11:18
Airport Hamburg Helmut Schmidt Airport (EDDH)

Arrival

Time 2026-05-01 12:17
Airport Frankfurt Main Airport (EDDF)
Time Latitude Longitude Altitude Speed Heading
2026-05-01 10:47 53.63292 10.00358 49 ft 0 kts 87°
2026-05-01 11:09 53.63291 10.00326 49 ft 4 kts 87°
2026-05-01 11:09 53.63290 10.00281 49 ft 4 kts 87°
2026-05-01 11:09 53.63289 10.00244 49 ft 4 kts 85°
2026-05-01 11:10 53.63266 10.00175 43 ft 4 kts
2026-05-01 11:10 53.63257 10.00174 45 ft 0 kts 355°
2026-05-01 11:13 53.63296 10.00169 46 ft 14 kts 356°
2026-05-01 11:13 53.63389 10.00158 49 ft 13 kts 355°
2026-05-01 11:13 53.63478 10.00145 49 ft 11 kts 355°
2026-05-01 11:13 53.63522 10.00130 49 ft 5 kts 332°
2026-05-01 11:14 53.63542 10.00109 50 ft 0 kts 326°
2026-05-01 11:16 53.63570 10.00078 51 ft 8 kts 326°
2026-05-01 11:16 53.63609 10.00000 53 ft 5 kts 277°
2026-05-01 11:16 53.63601 9.99965 49 ft 0 kts 237°
2026-05-01 11:17 53.63600 9.99963 49 ft 1 kts 237°
2026-05-01 11:17 53.63578 9.99915 52 ft 20 kts 231°
2026-05-01 11:17 53.63291 9.99341 47 ft 106 kts 230°
2026-05-01 11:17 53.62672 9.98108 165 ft 157 kts 227°
2026-05-01 11:18 53.61982 9.96690 1011 ft 157 kts 228°
2026-05-01 11:18 53.61303 9.95253 1880 ft 161 kts 229°
2026-05-01 11:18 53.60539 9.93705 2591 ft 181 kts 228°
2026-05-01 11:18 53.59691 9.92043 3267 ft 197 kts 227°
2026-05-01 11:19 53.58738 9.90163 3835 ft 225 kts 228°
2026-05-01 11:19 53.57642 9.87939 4060 ft 273 kts 227°
2026-05-01 11:19 53.56204 9.85428 4066 ft 321 kts 218°
2026-05-01 11:19 53.54323 9.83640 4145 ft 297 kts 192°
2026-05-01 11:20 53.52396 9.83754 4234 ft 268 kts 159°
2026-05-01 11:20 53.51037 9.85643 4460 ft 255 kts 117°
2026-05-01 11:20 53.50839 9.88507 5817 ft 250 kts 81°
2026-05-01 11:20 53.51266 9.91244 7278 ft 237 kts 78°
2026-05-01 11:21 53.51596 9.93984 8231 ft 249 kts 87°
2026-05-01 11:21 53.51598 9.97020 8879 ft 269 kts 95°
2026-05-01 11:21 53.51520 10.00207 9838 ft 275 kts 94°
2026-05-01 11:21 53.51413 10.03434 10786 ft 280 kts 100°
2026-05-01 11:22 53.50812 10.06662 11267 ft 301 kts 118°
2026-05-01 11:22 53.49760 10.09786 12015 ft 312 kts 120°
2026-05-01 11:22 53.48719 10.13018 12939 ft 317 kts 118°
2026-05-01 11:22 53.47696 10.16334 13861 ft 322 kts 118°
2026-05-01 11:23 53.46516 10.19543 14698 ft 327 kts 131°
2026-05-01 11:23 53.44767 10.21917 15461 ft 332 kts 152°
2026-05-01 11:23 53.42549 10.23072 16238 ft 340 kts 173°
2026-05-01 11:23 53.40165 10.23154 17037 ft 345 kts 179°
2026-05-01 11:24 53.37745 10.23133 17823 ft 350 kts 179°
2026-05-01 11:24 53.35287 10.23102 18612 ft 355 kts 179°
2026-05-01 11:24 53.30282 10.23053 19978 ft 364 kts 179°
2026-05-01 11:25 53.27734 10.23031 20670 ft 368 kts 179°
2026-05-01 11:25 53.22583 10.22991 22026 ft 377 kts 178°
2026-05-01 11:25 53.19948 10.22973 22695 ft 381 kts 178°
2026-05-01 11:26 53.17278 10.22955 23375 ft 385 kts 178°
2026-05-01 11:26 53.11850 10.22931 24590 ft 394 kts 178°
2026-05-01 11:26 53.09095 10.22922 25144 ft 398 kts 179°
2026-05-01 11:27 53.06316 10.22909 25693 ft 401 kts 179°
2026-05-01 11:27 53.03514 10.22887 26238 ft 404 kts 179°
2026-05-01 11:27 53.00688 10.22864 26758 ft 408 kts 179°
2026-05-01 11:27 52.97841 10.22844 27283 ft 411 kts 179°
2026-05-01 11:28 52.95010 10.22827 27774 ft 414 kts 179°
2026-05-01 11:28 52.92123 10.22813 28262 ft 417 kts 179°
2026-05-01 11:28 52.89208 10.22802 28748 ft 420 kts 179°
2026-05-01 11:29 52.83330 10.22772 29387 ft 423 kts 179°
2026-05-01 11:29 52.80452 10.22752 29410 ft 404 kts 179°
2026-05-01 11:29 52.74952 10.22715 29409 ft 391 kts 179°
2026-05-01 11:30 52.72241 10.22703 29406 ft 389 kts 179°
2026-05-01 11:30 52.66864 10.22686 29409 ft 389 kts 178°
2026-05-01 11:31 52.61452 10.22652 29411 ft 389 kts 179°
2026-05-01 11:31 52.56045 10.22613 29415 ft 389 kts 179°
2026-05-01 11:32 52.50639 10.22577 29408 ft 389 kts 179°
2026-05-01 11:32 52.45229 10.22551 29405 ft 389 kts 178°
2026-05-01 11:33 52.39863 10.22521 29400 ft 388 kts 179°
2026-05-01 11:33 52.34460 10.22495 29396 ft 388 kts 179°
2026-05-01 11:34 52.29057 10.22463 29392 ft 388 kts 179°
2026-05-01 11:34 52.23654 10.22430 29389 ft 388 kts 179°
2026-05-01 11:35 52.18282 10.22397 29389 ft 388 kts 179°
2026-05-01 11:35 52.12878 10.22376 29389 ft 388 kts 178°
2026-05-01 11:36 52.07471 10.22354 29393 ft 389 kts 179°
2026-05-01 11:36 52.02061 10.22329 29391 ft 388 kts 179°
2026-05-01 11:37 51.96657 10.22287 29388 ft 389 kts 178°
2026-05-01 11:37 51.91246 10.22250 29387 ft 389 kts 179°
2026-05-01 11:38 51.85836 10.22222 29391 ft 389 kts 179°
2026-05-01 11:38 51.80463 10.22200 29390 ft 389 kts 179°
2026-05-01 11:38 51.77788 10.22184 29386 ft 378 kts 178°
2026-05-01 11:39 51.75194 10.22164 29387 ft 369 kts 179°
2026-05-01 11:39 51.70089 10.22140 29392 ft 367 kts 178°
2026-05-01 11:40 51.64991 10.22117 29017 ft 367 kts 179°
2026-05-01 11:40 51.62432 10.22105 28680 ft 368 kts 178°
2026-05-01 11:40 51.59873 10.22091 28364 ft 368 kts 178°
2026-05-01 11:40 51.57341 10.22073 28046 ft 370 kts 178°
2026-05-01 11:41 51.54763 10.22059 27727 ft 370 kts 179°
2026-05-01 11:41 51.52186 10.22045 27413 ft 371 kts 178°
2026-05-01 11:41 51.49603 10.22031 27101 ft 371 kts 179°
2026-05-01 11:41 51.47026 10.22017 26797 ft 371 kts 179°
2026-05-01 11:42 51.44441 10.22003 26497 ft 372 kts 179°
2026-05-01 11:42 51.41850 10.21989 26195 ft 373 kts 178°
2026-05-01 11:42 51.39256 10.21975 25899 ft 373 kts 178°
2026-05-01 11:42 51.36693 10.21961 25610 ft 374 kts 178°
2026-05-01 11:43 51.34093 10.21948 25395 ft 374 kts 178°
2026-05-01 11:43 51.31468 10.21929 25347 ft 383 kts 179°
2026-05-01 11:43 51.28817 10.21886 25050 ft 377 kts 179°
2026-05-01 11:44 51.23641 10.21767 24667 ft 370 kts 179°
2026-05-01 11:44 51.21071 10.21708 24467 ft 369 kts 179°
2026-05-01 11:44 51.18514 10.21650 24281 ft 367 kts 179°
2026-05-01 11:44 51.15959 10.21595 24084 ft 366 kts 179°
2026-05-01 11:45 51.13415 10.21542 23877 ft 365 kts 179°
2026-05-01 11:45 51.10917 10.21492 23675 ft 364 kts 179°
2026-05-01 11:45 51.08383 10.21444 23487 ft 363 kts 179°
2026-05-01 11:45 51.05862 10.21397 23297 ft 362 kts 179°
2026-05-01 11:46 51.03347 10.21352 23105 ft 361 kts 179°
2026-05-01 11:46 51.00840 10.21309 22917 ft 359 kts 179°
2026-05-01 11:46 50.98347 10.21265 22728 ft 358 kts 179°
2026-05-01 11:46 50.95864 10.21222 22541 ft 357 kts 179°
2026-05-01 11:47 50.93382 10.21177 22351 ft 356 kts 178°
2026-05-01 11:47 50.90912 10.21134 22166 ft 354 kts 178°
2026-05-01 11:47 50.88454 10.21090 21988 ft 353 kts 178°
2026-05-01 11:47 50.86030 10.21046 21790 ft 353 kts 178°
2026-05-01 11:48 50.83587 10.20730 21583 ft 354 kts 190°
2026-05-01 11:48 50.81260 10.19448 21396 ft 356 kts 206°
2026-05-01 11:48 50.79222 10.17234 21190 ft 357 kts 221°
2026-05-01 11:48 50.77625 10.14226 20998 ft 359 kts 237°
2026-05-01 11:49 50.76469 10.10719 20807 ft 360 kts 242°
2026-05-01 11:49 50.75354 10.07181 20618 ft 359 kts 242°
2026-05-01 11:49 50.74237 10.03662 20421 ft 358 kts 242°
2026-05-01 11:49 50.73134 10.00211 20234 ft 357 kts 242°
2026-05-01 11:50 50.72012 9.96715 20039 ft 356 kts 242°
2026-05-01 11:50 50.70892 9.93233 19843 ft 355 kts 242°
2026-05-01 11:50 50.69777 9.89767 19655 ft 354 kts 242°
2026-05-01 11:50 50.68663 9.86308 19463 ft 353 kts 241°
2026-05-01 11:51 50.67552 9.82863 19274 ft 352 kts 241°
2026-05-01 11:51 50.66448 9.79434 19089 ft 349 kts 242°
2026-05-01 11:51 50.65351 9.76029 18901 ft 348 kts 241°
2026-05-01 11:51 50.64252 9.72642 18712 ft 346 kts 239°
2026-05-01 11:52 50.62907 9.69594 18510 ft 342 kts 226°
2026-05-01 11:52 50.61161 9.67101 18321 ft 338 kts 212°
2026-05-01 11:52 50.59129 9.65297 18142 ft 334 kts 200°
2026-05-01 11:52 50.56970 9.63976 17960 ft 333 kts 198°
2026-05-01 11:53 50.54811 9.62667 17780 ft 332 kts 198°
2026-05-01 11:53 50.52663 9.61356 17599 ft 331 kts 198°
2026-05-01 11:53 50.50541 9.59939 17416 ft 332 kts 206°
2026-05-01 11:53 50.48666 9.57808 17238 ft 335 kts 221°
2026-05-01 11:54 50.47215 9.55011 17062 ft 337 kts 237°
2026-05-01 11:54 50.46259 9.51647 16883 ft 340 kts 252°
2026-05-01 11:54 50.45598 9.48080 16696 ft 340 kts 252°
2026-05-01 11:54 50.44931 9.44523 16445 ft 339 kts 252°
2026-05-01 11:55 50.44261 9.40980 16187 ft 338 kts 252°
2026-05-01 11:55 50.43591 9.37464 15941 ft 335 kts 252°
2026-05-01 11:55 50.42924 9.33962 15701 ft 335 kts 252°
2026-05-01 11:55 50.42206 9.30494 15448 ft 334 kts 246°
2026-05-01 11:56 50.41152 9.27268 15203 ft 331 kts 235°
2026-05-01 11:56 50.39769 9.24433 14964 ft 325 kts 225°
2026-05-01 11:56 50.38117 9.22049 14721 ft 321 kts 214°
2026-05-01 11:56 50.36289 9.20155 14488 ft 319 kts 209°
2026-05-01 11:57 50.34401 9.18341 14253 ft 318 kts 209°
2026-05-01 11:57 50.32521 9.16530 14002 ft 317 kts 209°
2026-05-01 11:57 50.30654 9.14709 13733 ft 316 kts 211°
2026-05-01 11:57 50.28937 9.12573 13476 ft 316 kts 220°
2026-05-01 11:58 50.27464 9.10020 13214 ft 317 kts 230°
2026-05-01 11:58 50.26273 9.07112 12955 ft 319 kts 239°
2026-05-01 11:58 50.24665 9.00725 12448 ft 317 kts 248°
2026-05-01 11:59 50.23914 8.97495 12194 ft 315 kts 247°
2026-05-01 11:59 50.23161 8.94288 11943 ft 314 kts 247°
2026-05-01 11:59 50.22407 8.91092 11691 ft 313 kts 247°
2026-05-01 12:00 50.20915 8.84757 11198 ft 309 kts 247°
2026-05-01 12:00 50.20175 8.81612 10948 ft 307 kts 247°
2026-05-01 12:00 50.18701 8.75377 10473 ft 305 kts 246°
2026-05-01 12:01 50.17969 8.72286 10268 ft 300 kts 247°
2026-05-01 12:01 50.17260 8.69288 10144 ft 298 kts 246°
2026-05-01 12:01 50.16543 8.66261 10011 ft 297 kts 246°
2026-05-01 12:01 50.15825 8.63246 9877 ft 296 kts 246°
2026-05-01 12:02 50.15108 8.60242 9746 ft 296 kts 246°
2026-05-01 12:02 50.14393 8.57243 9612 ft 295 kts 246°
2026-05-01 12:02 50.13680 8.54250 9480 ft 294 kts 246°
2026-05-01 12:02 50.12968 8.51272 9353 ft 293 kts 246°
2026-05-01 12:03 50.12258 8.48303 9219 ft 292 kts 246°
2026-05-01 12:03 50.11548 8.45344 9090 ft 291 kts 246°
2026-05-01 12:03 50.10847 8.42433 8963 ft 291 kts 246°
2026-05-01 12:03 50.10138 8.39488 8831 ft 290 kts 246°
2026-05-01 12:04 50.09431 8.36557 8708 ft 289 kts 246°
2026-05-01 12:04 50.08722 8.33628 8574 ft 288 kts 246°
2026-05-01 12:04 50.08015 8.30717 8454 ft 287 kts 246°
2026-05-01 12:04 50.07307 8.27810 8329 ft 287 kts 246°
2026-05-01 12:05 50.06601 8.24912 8201 ft 286 kts 246°
2026-05-01 12:05 50.05192 8.19138 7949 ft 284 kts 245°
2026-05-01 12:05 50.04502 8.16313 7829 ft 283 kts 246°
2026-05-01 12:06 50.03804 8.13449 7695 ft 283 kts 246°
2026-05-01 12:06 50.03108 8.10595 7571 ft 282 kts 245°
2026-05-01 12:06 50.02411 8.07747 7441 ft 282 kts 245°
2026-05-01 12:06 50.01717 8.04904 7329 ft 281 kts 245°
2026-05-01 12:07 50.01024 8.02066 7207 ft 280 kts 245°
2026-05-01 12:07 50.00331 7.99238 7082 ft 280 kts 246°
2026-05-01 12:07 49.99638 7.96413 6965 ft 280 kts 246°
2026-05-01 12:07 49.98947 7.93593 6838 ft 279 kts 245°
2026-05-01 12:08 49.98020 7.91049 6730 ft 272 kts 226°
2026-05-01 12:08 49.96586 7.89227 6588 ft 262 kts 204°
2026-05-01 12:08 49.94912 7.88443 6459 ft 243 kts 182°
2026-05-01 12:08 49.93285 7.88644 6326 ft 229 kts 163°
2026-05-01 12:09 49.91880 7.89633 6193 ft 217 kts 145°
2026-05-01 12:09 49.90811 7.91203 6064 ft 209 kts 128°
2026-05-01 12:09 49.90111 7.93206 5940 ft 220 kts 111°
2026-05-01 12:09 49.89850 7.95592 5808 ft 229 kts 92°
2026-05-01 12:10 49.90128 7.98012 5688 ft 235 kts 73°
2026-05-01 12:10 49.91735 8.02495 5425 ft 238 kts 64°
2026-05-01 12:10 49.92567 8.04716 5308 ft 238 kts 64°
2026-05-01 12:11 49.93952 8.09310 5064 ft 233 kts 75°
2026-05-01 12:11 49.94507 8.11676 4963 ft 233 kts 74°
2026-05-01 12:11 49.95074 8.14023 4961 ft 231 kts 73°
2026-05-01 12:12 49.95643 8.16358 4939 ft 231 kts 73°
2026-05-01 12:12 49.96212 8.18695 4713 ft 232 kts 73°
2026-05-01 12:12 49.96770 8.20986 4392 ft 227 kts 74°
2026-05-01 12:12 49.97327 8.23281 4085 ft 227 kts 73°
2026-05-01 12:13 49.97878 8.25548 3773 ft 222 kts 72°
2026-05-01 12:13 49.98421 8.27790 3454 ft 220 kts 71°
2026-05-01 12:13 49.98948 8.29960 3137 ft 209 kts 72°
2026-05-01 12:13 49.99446 8.32022 2853 ft 201 kts 71°
2026-05-01 12:14 49.99929 8.34017 2572 ft 191 kts 72°
2026-05-01 12:14 50.00383 8.35893 2331 ft 179 kts 73°
2026-05-01 12:14 50.00800 8.37611 2057 ft 160 kts 73°
2026-05-01 12:14 50.01190 8.39170 1835 ft 151 kts 72°
2026-05-01 12:15 50.01537 8.40616 1563 ft 138 kts 73°
2026-05-01 12:15 50.01859 8.41967 1417 ft 129 kts 73°
2026-05-01 12:15 50.02168 8.43263 1197 ft 124 kts 73°
2026-05-01 12:15 50.02479 8.44519 1009 ft 128 kts 71°
2026-05-01 12:16 50.02779 8.45812 910 ft 126 kts 73°
2026-05-01 12:16 50.03088 8.47089 740 ft 127 kts 72°
2026-05-01 12:16 50.03392 8.48384 512 ft 128 kts 71°
2026-05-01 12:16 50.03694 8.49649 369 ft 124 kts 71°
2026-05-01 12:17 50.03964 8.50798 324 ft 93 kts 69°
2026-05-01 12:17 50.04123 8.51456 331 ft 49 kts 70°
2026-05-01 12:17 50.04224 8.51894 335 ft 34 kts 76°
2026-05-01 12:17 50.04226 8.52207 339 ft 27 kts 96°
2026-05-01 12:18 50.04200 8.52490 347 ft 25 kts 99°
2026-05-01 12:18 50.04215 8.52746 356 ft 23 kts 70°
2026-05-01 12:18 50.04271 8.52980 358 ft 23 kts 67°
2026-05-01 12:18 50.04327 8.53207 366 ft 23 kts 72°
2026-05-01 12:19 50.04383 8.53444 373 ft 24 kts 71°
2026-05-01 12:19 50.04409 8.53724 376 ft 28 kts 85°
2026-05-01 12:19 50.04431 8.54031 375 ft 29 kts 83°
2026-05-01 12:19 50.04449 8.54301 375 ft 25 kts 84°
2026-05-01 12:20 50.04431 8.54585 370 ft 27 kts 114°
2026-05-01 12:20 50.04300 8.54780 361 ft 26 kts 157°
2026-05-01 12:20 50.04148 8.54865 356 ft 25 kts 160°
2026-05-01 12:20 50.04020 8.54982 354 ft 15 kts 103°
2026-05-01 12:21 50.03978 8.55098 355 ft 11 kts 158°
2026-05-01 12:21 50.03942 8.55117 355 ft 0 kts 161°